User: anonymous
Location: Fort Wayne
(41.1310°N, 85.1290°W)
Time: 15:48:41
(UTC-04:00)
Language:

Gbstr 26 Del rocket - Orbit

View from above orbital plane
View from above orbital plane
View from above satellite
View from above satellite

Ground track
Ground track

The orbit data is extracted from the following two-line orbital elements,

1 25876U 99041E   14234.94313256  .00000039  00000-0  46395-4 0  4457
2 25876 051.7687 053.8494 0539711 271.1115 211.5098 14.02155914770081
Epoch (UTC): 22 August 2014 22:38:06
Eccentricity: 0.0539711
inclination: 51.7687°
perigee height: 494 km
apogee height: 1278 km
right ascension of ascending node: 53.8494°
argument of perigee: 271.1115°
revolutions per day: 14.02155914
mean anomaly at epoch: 211.5098°
orbit number at epoch: 77008

The dashed part of the orbit path shows where the satellite is in the earth's shadow,  

DLR